Location: Владивосток
(43.1151°N, 131.8856°E)
Time: 02:51:45
(UTC+10:00)

deb HAPS - Visible Passes

Search period start: 08 October 2024 00:00
Search period end: 18 October 2024 00:00
Orbit: 580 x 800 km, 82.0° (Epoch: 06 October)

Date Brightness Start Highest point End Pass type
(mag) Time Alt. Az. Time Alt. Az. Time Alt. Az.
08 Oct ? 04:07:29 29° ESE 04:08:14 30° E 04:12:45 10° NNE visible
08 Oct ? 05:46:11 30° WSW 05:47:33 35° WNW 05:52:18 10° N visible
09 Oct ? 04:48:03 80° ENE 04:48:03 80° ENE 04:53:05 10° N visible
09 Oct ? 06:26:45 13° W 06:27:54 14° WNW 06:30:30 10° NW visible
10 Oct ? 03:49:47 25° ENE 03:49:47 25° ENE 03:52:54 10° NNE visible
10 Oct ? 05:28:28 36° WNW 05:28:28 36° WNW 05:32:37 10° N visible
11 Oct ? 04:30:05 39° NNE 04:30:05 39° NNE 04:33:17 10° NNE visible
11 Oct ? 06:08:46 14° WNW 06:08:46 14° WNW 06:10:57 10° NNW visible
12 Oct ? 03:31:36 16° NE 03:31:36 16° NE 03:32:57 10° NE visible
12 Oct ? 05:10:17 27° NNW 05:10:17 27° NNW 05:12:50 10° N visible
13 Oct ? 04:11:42 22° NNE 04:11:42 22° NNE 04:13:24 10° NNE visible
13 Oct ? 05:50:22 13° NW 05:50:22 13° NW 05:51:16 10° NNW visible
14 Oct ? 04:51:43 17° N 04:51:43 17° N 04:52:58 10° N visible
15 Oct ? 03:53:00 12° NNE 03:53:00 12° NNE 03:53:25 10° NNE visible
16 Oct ? 04:32:52 11° N 04:32:52 11° N 04:33:01 10° N visible
